Theta_e
341 343 345 346 347 347 347 347 347 346 345 344 344 343 343 342 341 338 335 332 332 333 333 333 334 333 334 333 332 329 328 328 330 331 331 331 330 331 330 330 330 329 329 328 327 326 326 325 325 323 324 328
336 341 343 344 344 345 345 345 346 346 345 344 344 343 341 340 340 338 335 333 331 331 331 331 330 331 332 332 330 327 325 325 327 328 329 329 329 329 329 329 329 328 327 326 325 324 324 325 324 324 324 328
343 332 339 339 341 342 343 344 343 344 342 341 341 340 338 335 333 332 333 333 333 331 330 329 329 329 331 331 329 327 325 325 326 327 327 327 328 328 328 327 327 326 326 325 324 324 323 321 321 321 325 327
344 335 331 336 336 339 341 341 341 340 337 334 333 333 331 329 332 329 330 325 330 328 330 327 326 328 328 330 329 328 326 327 326 326 326 327 327 327 326 326 325 324 324 323 322 322 322 320 320 327 327 326
345 343 329 332 330 332 336 338 336 335 327 324 324 328 325 328 337 334 333 331 331 324 330 323 324 327 326 327 327 327 326 326 325 324 325 325 325 323 322 319 319 320 321 321 320 320 319 318 326 326 326 328
346 345 338 345 343 343 338 331 328 336 341 333 338 324 335 341 338 337 336 333 329 329 329 327 322 324 325 324 325 324 324 324 323 322 323 322 321 320 318 318 320 318 315 316 317 317 316 323 324 325 325 325
346 345 345 344 343 344 335 338 342 343 340 343 341 343 343 338 339 338 335 334 331 331 323 328 322 324 324 325 324 324 323 322 322 321 321 319 318 317 316 318 319 319 319 318 313 314 320 321 321 322 323 324
345 344 345 345 345 345 343 342 341 341 341 342 342 343 341 340 339 337 336 326 324 326 331 328 321 321 322 323 322 321 321 321 319 318 317 316 314 315 316 317 316 317 317 317 317 317 317 317 317 319 320 321
344 346 347 346 345 345 344 342 341 339 339 342 342 342 341 340 338 336 333 331 331 332 331 329 326 325 324 322 321 317 317 315 314 314 314 313 314 315 315 315 315 315 314 314 313 313 313 313 315 316 317 318
343 344 344 344 343 344 344 342 340 340 339 341 342 342 340 338 337 335 333 333 334 333 332 329 328 326 321 319 318 316 315 315 316 316 315 315 314 313 314 313 312 311 311 310 310 309 309 310 311 312 313 315
340 342 345 344 343 342 342 342 340 339 339 338 341 342 339 338 336 334 333 332 333 333 332 331 326 322 319 318 318 317 316 316 316 315 314 314 313 312 311 310 309 308 308 308 307 306 306 306 307 309 309 311
338 341 343 343 342 342 339 339 340 340 339 339 339 339 338 337 337 335 333 331 332 332 332 330 326 324 320 319 319 318 317 316 316 315 314 314 313 311 310 308 307 306 305 304 305 304 304 304 304 305 306 307
337 339 340 342 341 342 335 339 340 341 340 338 338 338 337 337 336 336 334 332 331 333 331 331 328 325 322 320 319 319 318 318 316 315 314 312 311 310 309 307 306 304 303 303 303 302 302 302 302 303 304 305
335 336 339 341 340 343 338 340 339 340 339 338 338 336 337 337 336 336 335 335 333 332 331 330 327 326 324 320 320 320 319 318 316 314 313 313 312 310 308 306 304 303 302 301 301 301 300 300 300 301 301 302
333 336 338 340 341 341 338 341 339 337 336 338 338 337 336 337 337 336 337 336 334 332 330 328 325 325 324 322 321 321 319 318 316 315 313 313 311 309 307 304 303 301 301 300 300 300 299 299 299 298 299 299
332 334 336 338 339 339 339 340 340 339 337 334 337 337 336 337 337 336 337 335 334 333 331 329 326 325 324 322 321 320 319 318 316 314 314 312 310 309 306 303 302 302 300 299 299 299 299 299 298 298 298 298
331 333 334 335 336 337 338 337 337 337 337 337 337 336 335 337 336 335 336 335 334 332 332 330 327 324 324 323 321 320 319 318 316 313 311 309 308 307 305 303 302 302 299 298 298 298 298 298 298 298 298 297
331 333 334 335 334 335 335 335 335 336 337 337 335 333 335 337 336 334 335 335 332 331 331 329 327 325 324 324 322 321 318 315 312 309 308 307 306 304 303 300 300 299 298 298 298 298 298 297 297 297 297 296
328 331 332 333 333 333 333 330 332 334 333 333 334 334 334 334 334 335 335 335 332 329 329 328 327 325 323 324 322 319 317 315 311 309 308 306 303 302 300 300 300 299 298 297 296 296 296 296 296 296 296 296
326 328 329 330 327 333 331 329 327 329 333 333 333 333 333 333 332 333 333 332 331 328 328 327 324 323 323 321 319 318 316 313 310 309 307 305 302 299 299 299 299 299 297 296 295 296 295 295 295 295 295 296
324 327 328 329 329 331 332 329 327 325 329 332 331 332 333 331 330 331 331 331 329 327 327 326 322 319 320 319 317 316 315 313 310 307 306 304 303 301 298 299 298 297 296 295 295 295 295 295 295 295 294 294
322 324 327 328 326 327 330 327 325 324 325 327 329 330 330 330 328 329 330 330 328 327 325 323 320 317 318 318 316 315 314 313 310 308 305 301 300 299 298 297 296 295 295 295 294 293 294 294 294 294 294 294
321 322 323 323 321 322 325 324 319 320 321 321 325 328 329 328 327 325 326 326 325 325 322 320 319 316 315 315 315 314 312 310 309 307 306 301 298 298 297 297 296 295 295 294 294 292 292 292 292 293 293 294
318 318 318 318 316 316 317 317 314 314 317 318 319 320 324 326 326 324 323 322 319 318 317 315 314 313 313 313 313 312 310 309 307 305 303 300 297 295 295 296 295 295 294 293 292 291 291 292 292 292 292 292
315 314 314 316 315 315 315 315 313 312 312 313 317 317 319 321 321 319 319 319 318 316 312 313 312 312 312 313 312 310 310 309 307 305 301 298 296 294 293 293 294 295 294 292 290 291 290 290 291 291 291 290
316 317 316 316 315 318 314 312 314 311 310 311 310 313 316 316 317 317 319 316 317 315 314 311 310 311 310 311 311 310 310 307 304 302 299 297 295 295 294 293 295 295 295 293 290 288 288 288 289 290 289 289
315 317 318 318 315 312 309 309 310 314 311 308 307 307 310 312 314 316 315 317 313 314 313 311 310 309 309 311 311 310 308 305 302 300 297 296 294 293 294 294 296 296 300 295 292 292 289 286 286 287 287 288
317 318 313 311 313 313 309 307 304 305 305 306 304 304 305 309 311 311 311 312 312 312 313 314 313 311 310 310 312 310 307 304 301 298 296 296 296 296 292 293 294 299 300 297 293 289 292 290 291 286 287 286
314 308 306 305 304 303 303 303 303 303 303 303 303 302 302 306 308 309 310 310 311 310 309 310 311 310 309 307 309 310 307 304 301 299 298 297 297 296 295 293 295 297 298 297 298 298 293 291 290 293 290 287
311 307 303 304 304 303 306 302 302 304 304 301 301 302 303 303 304 306 308 309 309 309 307 307 308 309 306 306 308 307 304 302 300 299 298 298 299 299 299 297 295 295 297 297 299 298 298 301 297 294 288 289
309 307 305 307 309 310 309 308 306 308 308 305 305 306 303 303 302 304 305 306 306 307 306 305 303 305 306 305 306 306 304 301 299 299 300 300 301 301 300 300 297 296 296 295 295 296 297 297 296 296 289 288
Wind_Speed
7 7 7 9 10 10 10 11 11 12 11 12 13 13 13 14 13 14 15 15 15 16 16 16 17 17 17 18 18 18 18 18 18 18 18 19 19 18 18 18 18 17 17 16 15 14 13 12 12 11 12 11
4 3 5 7 9 10 9 10 11 10 10 11 10 11 11 11 11 13 15 15 15 16 16 16 16 17 18 18 18 19 19 18 19 18 18 18 18 18 18 18 18 17 16 16 15 13 12 10 12 11 13 12
5 2 5 4 8 9 10 9 10 10 9 10 11 12 12 12 11 11 12 12 13 12 13 13 14 17 17 18 18 18 18 18 18 18 18 18 18 18 18 18 17 17 16 15 15 13 10 11 12 12 12 11
7 3 5 5 5 9 10 10 10 10 10 10 12 12 13 13 12 12 11 11 11 11 11 12 13 13 15 17 18 18 18 18 18 18 18 18 19 18 18 18 17 16 16 15 14 12 9 10 10 10 10 13
8 7 6 3 4 2 9 10 10 11 10 11 11 12 12 12 11 10 10 10 10 11 10 11 12 14 15 17 17 17 17 17 17 17 18 18 18 19 18 17 17 16 15 14 13 10 10 9 9 10 12 12
6 7 8 9 6 6 6 7 11 9 8 8 9 11 10 8 8 7 7 9 10 10 10 10 11 13 14 16 15 17 18 18 18 18 18 18 18 17 14 12 10 11 12 13 11 10 9 9 8 9 10 12
7 8 7 7 9 7 7 8 9 9 9 9 10 10 8 7 7 8 8 7 6 7 10 10 10 12 13 14 14 16 18 17 18 18 18 18 16 14 12 8 7 7 6 7 9 9 8 8 8 8 10 10
7 7 8 7 8 6 7 6 6 6 8 8 9 8 7 6 7 8 7 9 13 10 9 9 11 12 13 14 14 16 14 16 16 17 16 13 12 9 7 7 7 6 6 6 6 6 7 7 7 8 8 9
7 8 6 6 6 6 6 6 6 6 5 8 9 8 7 7 8 8 7 8 7 7 8 9 9 8 8 9 9 10 10 9 9 9 8 7 7 7 7 7 7 6 6 6 6 7 7 7 7 8 8 8
6 7 7 7 7 7 7 6 6 6 6 5 8 7 7 8 8 9 7 7 6 7 8 8 7 6 7 7 8 8 8 8 8 7 7 6 7 6 6 7 6 6 6 6 6 6 7 6 7 7 7 7
4 6 9 9 9 8 7 7 7 7 7 7 7 7 8 9 9 9 8 6 6 7 8 7 7 8 8 7 7 7 8 8 8 7 7 7 7 7 7 8 7 7 7 7 7 7 7 7 7 6 6 7
8 7 8 9 8 9 8 8 9 9 8 8 6 8 9 9 9 9 8 8 6 6 8 7 7 8 8 7 6 6 7 8 7 7 7 7 8 8 7 8 8 7 7 7 7 8 7 7 7 7 6 7
7 5 6 9 8 9 9 7 8 9 10 9 7 8 10 9 8 7 9 9 7 6 8 7 7 7 7 8 7 7 7 7 8 7 7 8 8 7 7 7 7 7 7 7 7 7 7 7 7 7 6 7
4 5 5 6 8 6 8 8 6 9 9 10 9 8 10 10 9 9 10 10 9 8 7 7 7 7 7 8 8 7 8 7 8 8 7 7 8 7 7 7 7 7 8 8 7 7 7 7 6 6 6 6
6 8 6 6 7 7 7 9 8 6 6 7 10 11 11 12 10 9 10 9 9 8 8 7 7 7 7 7 7 7 7 6 7 7 7 7 8 7 7 7 7 8 8 7 7 7 7 6 6 6 6 6
6 7 8 7 8 7 7 6 8 9 7 3 8 11 12 12 12 10 9 10 10 10 9 9 8 8 8 7 6 6 7 7 7 7 7 7 7 8 7 7 7 7 8 8 7 7 7 6 6 6 5 6
7 7 6 4 5 7 7 6 5 7 8 9 8 9 11 12 13 12 10 10 10 9 10 10 9 7 7 7 7 7 8 9 7 7 7 7 7 8 7 7 7 7 8 8 7 6 7 6 6 5 5 5
10 12 10 9 7 4 6 5 7 7 7 8 8 6 8 10 11 11 10 9 10 8 6 8 9 9 7 7 9 8 8 9 8 8 8 8 7 7 7 7 7 8 9 7 6 7 6 6 5 5 5 5
10 12 11 10 7 7 6 4 6 7 6 7 8 8 8 10 7 11 10 11 10 8 8 8 8 8 8 7 9 9 8 9 8 7 8 8 9 7 7 7 6 7 9 8 8 7 6 6 6 5 5 4
9 11 11 10 9 7 6 6 4 3 6 7 7 8 9 10 9 11 9 10 9 9 9 8 8 7 8 8 8 7 6 7 8 7 6 5 8 9 8 9 7 6 8 8 8 6 6 6 5 5 4 4
9 11 11 11 9 8 9 7 6 4 5 8 7 7 9 9 7 8 9 10 10 9 9 7 7 8 9 9 8 7 7 6 6 8 8 5 3 6 9 9 9 8 7 8 8 7 7 6 5 5 4 4
9 9 10 7 5 7 9 7 5 6 6 6 7 7 8 9 9 8 9 10 10 9 9 8 8 7 9 10 10 7 7 6 7 6 8 8 4 5 8 9 9 9 7 7 7 7 7 6 5 4 4 3
9 8 6 3 4 7 8 7 4 4 6 5 6 7 8 9 9 9 9 9 7 8 8 9 10 11 9 7 10 9 9 8 7 6 5 10 7 3 5 8 9 10 8 8 8 8 8 6 6 4 3 2
9 8 8 8 5 6 6 3 4 3 4 4 6 4 8 9 9 10 9 10 8 7 7 8 7 8 9 10 8 11 14 9 9 11 9 8 11 7 6 6 8 10 10 9 10 9 7 6 5 4 3 3
11 9 7 6 9 8 7 5 4 4 3 3 4 6 5 7 8 7 7 9 8 8 6 6 7 8 7 9 10 8 11 13 11 8 9 9 7 11 11 7 7 9 11 12 9 8 8 6 5 4 3 3
11 11 10 8 9 8 6 5 6 5 4 4 2 4 5 5 7 8 9 7 8 8 10 8 6 7 8 7 7 8 9 12 11 11 11 9 7 4 10 10 10 10 10 8 9 10 7 6 4 3 3 3
11 10 10 8 6 5 4 1 0 4 4 4 3 3 3 4 4 7 7 10 8 8 9 9 10 9 9 10 10 9 9 11 11 11 12 10 11 9 3 7 8 11 7 8 9 8 9 7 6 4 3 3
11 8 4 4 5 5 3 3 3 3 4 4 3 5 2 4 4 5 6 7 7 6 7 10 10 10 10 10 10 11 12 11 11 11 11 9 9 13 10 7 8 7 2 8 12 9 6 8 6 5 7 6
8 7 6 5 6 6 5 4 3 4 3 4 4 3 4 6 4 4 5 7 9 9 8 6 7 10 10 8 9 10 11 12 12 12 12 11 10 12 13 11 9 6 4 8 7 4 7 4 4 5 7 8
9 8 8 8 8 8 9 7 8 10 10 7 7 6 3 2 3 4 5 6 7 8 8 9 7 7 10 11 11 8 8 8 10 11 11 12 12 12 11 13 11 9 6 7 5 5 4 2 1 6 9 8
9 10 9 12 11 10 10 9 6 4 4 6 6 5 6 5 4 3 5 6 6 8 9 8 7 9 10 10 8 10 10 9 11 11 11 11 9 10 9 10 11 12 9 5 5 4 4 3 3 4 12 7
Wind_Direction
189 179 162 161 154 147 144 139 137 136 134 129 128 123 114 102 99 100 100 99 97 97 97 97 96 97 97 97 97 95 96 95 96 96 96 99 99 93 89 85 81 77 74 70 65 60 53 45 42 34 67 73
155 155 170 165 158 147 142 139 137 136 136 133 118 112 111 102 98 100 100 99 99 100 99 98 98 98 99 99 99 98 98 98 97 96 96 95 93 91 87 84 81 78 75 71 66 60 55 47 47 46 66 73
132 51 178 218 161 149 139 138 137 136 131 124 114 116 107 96 95 92 92 93 95 95 97 97 98 101 102 103 104 103 101 100 98 97 96 96 95 92 89 85 82 77 72 68 66 60 52 55 54 59 68 71
168 170 202 172 175 150 142 140 137 131 125 116 114 115 112 110 109 106 100 99 96 92 96 98 101 103 106 107 107 106 105 102 100 98 98 98 97 93 89 84 79 75 71 68 64 59 52 53 63 71 73 77
176 183 157 144 95 152 150 145 127 116 113 115 118 122 125 135 126 122 119 115 108 106 99 99 102 105 107 108 108 106 105 102 99 97 96 96 94 90 85 80 72 67 68 66 62 55 54 60 70 69 77 73
180 165 191 176 170 165 148 127 128 135 136 136 132 134 147 143 137 133 124 116 116 110 111 100 100 105 106 107 104 104 104 101 98 96 95 95 96 94 93 95 91 81 67 59 57 50 49 67 65 61 71 79
176 178 188 181 176 167 162 149 156 151 150 155 152 154 154 148 145 138 133 127 105 106 87 92 95 100 103 103 101 101 100 98 96 94 95 95 94 93 94 90 91 89 89 80 62 59 59 64 60 59 62 67
180 183 195 189 182 164 171 162 157 150 162 163 165 158 156 150 140 141 120 92 108 115 118 97 82 84 89 92 94 98 95 90 90 95 95 96 99 98 93 90 90 89 84 79 71 67 66 63 56 56 59 65
196 189 184 178 183 178 174 166 164 162 168 166 169 161 152 146 147 134 129 139 141 140 131 129 126 124 121 119 114 114 111 115 118 114 112 105 100 95 93 93 89 89 87 81 79 73 68 65 61 61 59 62
199 204 188 185 186 182 180 167 167 161 158 172 169 162 151 149 146 143 144 153 147 145 144 145 142 130 124 125 123 127 125 127 125 120 112 103 100 94 91 87 84 81 82 84 78 73 64 62 62 61 59 62
193 218 213 196 193 192 190 183 173 172 165 170 171 164 158 161 154 152 155 157 156 152 154 148 142 135 132 133 131 132 129 128 127 123 115 106 100 97 94 90 87 83 79 78 81 75 66 64 64 63 60 60
210 218 225 212 177 183 178 182 177 173 172 170 172 174 167 167 164 162 159 163 165 158 162 149 148 142 140 138 134 136 132 132 128 122 117 112 107 106 101 99 96 91 85 81 79 76 69 66 65 63 62 61
209 221 234 193 194 192 165 187 184 176 168 171 176 176 176 171 169 166 168 168 170 162 164 151 151 147 145 141 140 143 140 138 133 126 126 124 119 113 112 109 102 95 89 86 79 78 75 70 67 67 66 63
196 210 238 182 189 202 179 184 202 178 174 170 166 171 176 179 180 174 181 176 173 172 157 152 151 148 147 149 147 149 147 146 138 135 134 127 120 117 114 106 102 102 93 86 81 79 81 76 75 73 69 64
214 215 215 215 202 193 193 194 178 183 189 171 170 171 177 179 183 181 185 182 170 176 159 158 159 156 154 150 150 151 143 139 139 135 132 132 125 121 114 109 107 106 101 94 89 84 83 82 81 75 72 72
227 218 221 218 217 196 195 212 195 189 183 189 185 173 172 187 183 185 186 184 182 171 169 162 163 164 161 152 146 148 142 136 134 133 125 117 112 113 113 115 111 107 105 98 93 89 86 85 84 79 78 78
225 228 230 215 219 216 202 198 208 200 187 185 185 177 174 185 189 190 186 188 186 183 174 166 163 163 164 152 146 143 132 124 123 124 121 113 117 116 117 113 110 107 102 102 99 94 90 88 81 79 82 78
227 226 227 226 222 214 204 197 200 206 198 197 181 176 181 179 183 183 192 179 176 175 183 163 160 165 167 154 146 139 137 135 137 133 131 128 117 116 122 122 122 120 112 108 105 96 90 85 82 84 79 74
232 229 231 228 219 214 202 188 209 191 190 189 180 173 191 177 171 189 187 188 174 169 171 170 161 164 173 157 145 144 148 141 141 142 139 138 127 124 123 121 124 122 116 114 106 100 96 91 90 86 85 80
225 226 227 226 224 207 186 190 200 208 187 189 185 176 181 183 176 190 179 180 170 167 169 171 167 157 162 151 138 133 130 130 142 140 127 120 135 135 131 128 128 120 113 108 103 99 97 96 93 92 86 78
220 221 222 219 209 216 204 196 183 204 191 197 187 182 180 176 172 181 175 172 170 164 174 167 160 155 154 151 138 139 137 137 142 144 135 131 112 140 133 131 129 120 111 107 101 97 93 88 91 88 81 82
210 212 222 201 176 219 216 194 176 190 185 188 189 189 186 176 176 180 175 173 171 168 163 161 151 144 152 154 146 135 139 130 136 144 141 133 131 133 132 135 135 122 113 109 103 94 87 84 80 79 83 85
204 201 201 121 150 203 212 191 157 176 190 177 182 193 190 179 176 175 170 166 161 161 158 159 157 152 151 149 148 138 136 137 137 134 123 135 121 90 124 136 130 124 119 109 101 94 85 80 76 78 78 95
189 187 187 178 167 192 205 168 154 152 193 173 180 187 185 182 178 171 171 166 149 136 154 151 145 146 151 151 150 150 149 144 152 154 146 146 142 121 94 108 124 125 121 107 97 94 86 78 75 77 86 91
190 179 179 178 187 191 189 179 159 161 163 173 180 184 183 189 173 157 154 158 148 143 130 134 140 139 149 151 157 163 157 157 153 149 146 141 149 141 134 131 139 138 130 119 105 98 96 89 80 82 85 94
191 191 188 182 186 184 174 165 177 170 178 175 150 174 179 189 180 161 167 159 150 152 152 148 148 153 150 159 165 163 146 147 143 145 151 147 126 173 145 151 161 159 139 133 144 141 133 116 111 99 104 98
191 190 193 186 169 158 140 225 60 161 150 144 160 163 183 181 208 156 166 175 159 154 161 163 158 164 160 167 163 154 150 151 151 157 160 166 150 149 143 148 170 169 177 146 143 134 130 156 157 164 152 134
191 182 133 66 125 137 113 157 134 101 127 138 131 181 183 202 188 159 166 169 158 158 164 170 170 162 166 164 165 161 156 162 163 161 167 172 165 145 142 172 183 191 206 161 149 159 199 171 184 166 198 165
167 123 120 114 87 90 89 82 143 141 168 174 171 151 191 195 189 166 175 182 169 163 169 173 172 165 162 157 165 165 161 165 168 171 175 173 165 165 156 169 177 186 200 187 193 157 135 145 217 227 144 145
159 163 151 158 154 167 183 177 180 189 184 176 180 185 164 144 170 180 180 189 183 165 161 167 169 167 157 170 170 171 163 160 160 170 176 181 172 173 176 162 168 179 197 218 222 272 321 334 283 157 153 166
169 170 176 180 181 181 187 181 192 180 164 165 172 170 170 175 170 186 188 190 190 167 160 161 159 168 172 171 172 172 175 170 166 173 179 178 187 178 169 163 167 179 179 196 249 247 254 300 301 149 147 195